| time (UTC) | temp C | wind direction | speed KPH | gust KPH | rain 1hr cm | rain 24hr cm | rain mn cm | humidity % | barometer mb |
| 20260507132556 | 16 | 60 | 1.6 | 4.8 | 0.00 | 0.20 | 0.05 | 57 | 1014.4 |
| 20260507131536 | 16 | 90 | 1.6 | 8.0 | 0.00 | 0.20 | 0.05 | 55 | 1014.4 |
| 20260507130516 | 16 | 105 | 0.0 | 6.4 | 0.00 | 0.23 | 0.05 | 54 | 1014.5 |
| 20260507125516 | 17 | 118 | 1.6 | 9.7 | 0.00 | 0.23 | 0.05 | 54 | 1014.4 |
| 20260507124516 | 16 | 141 | 3.2 | 12.9 | 0.00 | 0.23 | 0.05 | 59 | 1014.4 |
| 20260507123516 | 16 | 201 | 3.2 | 9.7 | 0.00 | 0.23 | 0.05 | 57 | 1014.6 |
| 20260507122536 | 15 | 186 | 3.2 | 6.4 | 0.00 | 0.23 | 0.05 | 58 | 1014.6 |
| 20260507121536 | 15 | 356 | 0.0 | 1.6 | 0.00 | 0.23 | 0.05 | 59 | 1014.7 |
| 20260507120536 | 15 | 322 | 0.0 | 3.2 | 0.00 | 0.23 | 0.05 | 59 | 1014.7 |
| 20260507115516 | 15 | 158 | 1.6 | 9.7 | 0.00 | 0.25 | 0.05 | 58 | 1014.7 |
| 20260507114516 | 16 | 212 | 6.4 | 9.7 | 0.00 | 0.25 | 0.05 | 57 | 1014.7 |
| 20260507113516 | 16 | 165 | 1.6 | 6.4 | 0.00 | 0.25 | 0.05 | 59 | 1014.6 |
| 20260507112516 | 15 | 26 | 3.2 | 8.0 | 0.00 | 0.28 | 0.05 | 55 | 1014.7 |
| 20260507111516 | 16 | 66 | 4.8 | 12.9 | 0.00 | 0.28 | 0.05 | 57 | 1014.8 |
| 20260507110516 | 16 | 309 | 3.2 | 11.3 | 0.00 | 0.28 | 0.05 | 63 | 1014.8 |
| 20260507105536 | 15 | 283 | 0.0 | 9.7 | 0.00 | 0.28 | 0.05 | 60 | 1014.8 |
| 20260507103515 | 15 | 259 | 1.6 | 8.0 | 0.00 | 0.30 | 0.05 | 62 | 1014.9 |
| 20260507102516 | 15 | 252 | 4.8 | 9.7 | 0.00 | 0.30 | 0.05 | 64 | 1014.9 |
| 20260507101515 | 14 | 280 | 3.2 | 12.9 | 0.00 | 0.33 | 0.05 | 66 | 1014.9 |
| 20260507100516 | 14 | 282 | 3.2 | 12.9 | 0.00 | 0.33 | 0.05 | 66 | 1015.0 |
| 20260507095515 | 13 | 173 | 3.2 | 6.4 | 0.00 | 0.33 | 0.05 | 68 | 1014.9 |
| 20260507094516 | 13 | 60 | 0.0 | 6.4 | 0.00 | 0.33 | 0.05 | 69 | 1014.9 |
| 20260507093515 | 13 | 64 | 4.8 | 12.9 | 0.00 | 0.33 | 0.05 | 68 | 1014.9 |
| 20260507092516 | 13 | 163 | 0.0 | 4.8 | 0.00 | 0.33 | 0.05 | 67 | 1014.8 |
| 20260507091515 | 13 | 285 | 4.8 | 12.9 | 0.00 | 0.33 | 0.05 | 72 | 1014.8 |
| 20260507090516 | 13 | 122 | 1.6 | 6.4 | 0.03 | 0.36 | 0.05 | 74 | 1014.8 |
| 20260507085515 | 12 | 55 | 1.6 | 4.8 | 0.03 | 0.36 | 0.05 | 79 | 1014.8 |
| 20260507084516 | 12 | 0.0 | 0.0 | 0.03 | 0.36 | 0.05 | 80 | 1014.8 | |
| 20260507083535 | 12 | 0.0 | 0.0 | 0.03 | 0.36 | 0.05 | 79 | 1014.8 | |
| 20260507082516 | 12 | 287 | 0.0 | 3.2 | 0.03 | 0.38 | 0.05 | 77 | 1014.8 |
| 20260507081515 | 13 | 264 | 1.6 | 4.8 | 0.03 | 0.38 | 0.05 | 77 | 1014.7 |
| 20260507080516 | 12 | 28 | 1.6 | 6.4 | 0.00 | 0.36 | 0.05 | 83 | 1014.7 |
| 20260507075515 | 12 | 74 | 0.0 | 3.2 | 0.00 | 0.36 | 0.05 | 87 | 1014.7 |
| 20260507074516 | 11 | 71 | 0.0 | 3.2 | 0.00 | 0.38 | 0.05 | 89 | 1014.7 |
| 20260507073515 | 10 | 0.0 | 0.0 | 0.00 | 0.38 | 0.05 | 94 | 1014.6 | |
| 20260507072516 | 9 | 0.0 | 0.0 | 0.00 | 0.38 | 0.05 | 93 | 1014.6 | |
| 20260507071515 | 8 | 0.0 | 3.2 | 0.00 | 0.38 | 0.05 | 94 | 1014.5 | |
| 20260507070536 | 9 | 285 | 1.6 | 4.8 | 0.00 | 0.41 | 0.05 | 94 | 1014.6 |
| 20260507065515 | 8 | 0.0 | 0.0 | 0.00 | 0.41 | 0.05 | 96 | 1014.6 | |
| 20260507064516 | 8 | 0.0 | 0.0 | 0.00 | 0.41 | 0.05 | 96 | 1014.5 | |
| 20260507063515 | 7 | 0.0 | 0.0 | 0.00 | 0.43 | 0.05 | 96 | 1014.4 | |
| 20260507062536 | 6 | 0.0 | 0.0 | 0.00 | 0.43 | 0.05 | 96 | 1014.3 | |
| 20260507061515 | 6 | 0.0 | 0.0 | 0.00 | 0.43 | 0.05 | 95 | 1014.3 | |
| 20260507060536 | 5 | 0.0 | 0.0 | 0.00 | 0.43 | 0.05 | 95 | 1014.3 | |
| 20260507055515 | 5 | 0.0 | 0.0 | 0.00 | 0.43 | 0.05 | 95 | 1014.2 | |
| 20260507054516 | 5 | 0.0 | 0.0 | 0.00 | 0.43 | 0.05 | 95 | 1014.2 | |
| 20260507053515 | 5 | 0.0 | 0.0 | 0.00 | 0.43 | 0.05 | 95 | 1014.2 | |
| 20260507052516 | 5 | 0.0 | 0.0 | 0.03 | 0.46 | 0.05 | 95 | 1014.1 | |
| 20260507051516 | 5 | 0.0 | 0.0 | 0.03 | 0.46 | 0.05 | 95 | 1014.0 | |
| 20260507050536 | 5 | 0.0 | 0.0 | 0.03 | 0.46 | 0.05 | 94 | 1014.0 | |
| 20260507045516 | 5 | 0.0 | 0.0 | 0.03 | 0.48 | 0.05 | 94 | 1013.8 | |
| 20260507044556 | 5 | 0.0 | 0.0 | 0.03 | 0.48 | 0.05 | 94 | 1013.8 | |
| 20260507043516 | 5 | 0.0 | 0.0 | 0.03 | 0.48 | 0.05 | 94 | 1013.7 | |
| 20260507042516 | 5 | 0.0 | 0.0 | 0.00 | 0.48 | 0.03 | 94 | 1013.7 | |
| 20260507041516 | 5 | 0.0 | 0.0 | 0.00 | 0.48 | 0.03 | 94 | 1013.6 | |
| 20260507040516 | 5 | 0.0 | 0.0 | 0.00 | 0.48 | 0.03 | 94 | 1013.5 | |
| 20260507035515 | 5 | 0.0 | 0.0 | 0.00 | 0.51 | 0.03 | 94 | 1013.5 | |
| 20260507034516 | 5 | 0.0 | 0.0 | 0.00 | 0.51 | 0.03 | 94 | 1013.5 | |
| 20260507033516 | 5 | 0.0 | 0.0 | 0.00 | 0.51 | 0.03 | 94 | 1013.4 | |
| 20260507032516 | 5 | 0.0 | 0.0 | 0.00 | 0.51 | 0.03 | 93 | 1013.4 | |
| 20260507031516 | 5 | 0.0 | 0.0 | 0.00 | 0.53 | 0.03 | 93 | 1013.5 | |
| 20260507030516 | 5 | 0.0 | 0.0 | 0.00 | 0.53 | 0.03 | 93 | 1013.4 | |
| 20260507025516 | 5 | 0.0 | 0.0 | 0.00 | 0.53 | 0.03 | 93 | 1013.5 | |
| 20260507024516 | 6 | 0.0 | 0.0 | 0.00 | 0.56 | 0.03 | 93 | 1013.5 | |
| 20260507023516 | 6 | 0.0 | 0.0 | 0.00 | 0.56 | 0.03 | 93 | 1013.5 | |
| 20260507022515 | 6 | 0.0 | 0.0 | 0.00 | 0.58 | 0.03 | 93 | 1013.5 | |
| 20260507021515 | 6 | 0.0 | 0.0 | 0.00 | 0.58 | 0.03 | 92 | 1013.5 | |
| 20260507020515 | 6 | 0.0 | 0.0 | 0.00 | 0.61 | 0.03 | 92 | 1013.4 | |
| 20260507015515 | 6 | 0.0 | 0.0 | 0.00 | 0.61 | 0.03 | 92 | 1013.3 | |
| 20260507014516 | 6 | 0.0 | 0.0 | 0.00 | 0.61 | 0.03 | 92 | 1013.3 | |
| 20260507013515 | 6 | 0.0 | 0.0 | 0.03 | 0.61 | 0.03 | 92 | 1013.3 | |
| 20260507012535 | 7 | 0.0 | 0.0 | 0.03 | 0.64 | 0.03 | 91 | 1013.3 | |
| 20260507011515 | 7 | 0.0 | 0.0 | 0.03 | 0.64 | 0.03 | 91 | 1013.3 | |
| 20260507010515 | 7 | 0.0 | 0.0 | 0.03 | 0.66 | 0.03 | 91 | 1013.2 | |
| 20260507005535 | 7 | 0.0 | 0.0 | 0.03 | 0.66 | 0.03 | 92 | 1013.2 | |
| 20260507004515 | 7 | 0.0 | 0.0 | 0.03 | 0.69 | 0.03 | 92 | 1013.2 | |
| 20260507003516 | 7 | 0.0 | 0.0 | 0.00 | 0.66 | 0.00 | 92 | 1013.2 | |
| 20260507002516 | 7 | 0.0 | 0.0 | 0.00 | 0.69 | 0.00 | 92 | 1013.2 | |
| 20260507001515 | 7 | 0.0 | 0.0 | 0.00 | 0.69 | 0.00 | 92 | 1013.3 | |
| 20260507000515 | 7 | 0.0 | 0.0 | 0.00 | 0.71 | 0.00 | 92 | 1013.2 | |
| 20260506235516 | 7 | 0.0 | 0.0 | 0.00 | 0.71 | 0.00 | 92 | 1013.2 | |
| 20260506234516 | 7 | 0.0 | 0.0 | 0.00 | 0.71 | 0.00 | 91 | 1013.2 | |
| 20260506233515 | 7 | 0.0 | 0.0 | 0.00 | 0.74 | 0.00 | 91 | 1013.2 | |
| 20260506232516 | 7 | 0.0 | 0.0 | 0.00 | 0.74 | 0.00 | 91 | 1013.2 | |
| 20260506231515 | 7 | 0.0 | 0.0 | 0.00 | 0.76 | 0.00 | 92 | 1013.2 | |
| 20260506230516 | 7 | 0.0 | 0.0 | 0.00 | 0.79 | 0.00 | 91 | 1013.2 | |
| 20260506225516 | 7 | 0.0 | 0.0 | 0.00 | 0.79 | 0.00 | 91 | 1013.2 | |
| 20260506224515 | 7 | 0.0 | 0.0 | 0.03 | 0.79 | 0.00 | 91 | 1013.1 | |
| 20260506223515 | 7 | 0.0 | 0.0 | 0.03 | 0.81 | 0.00 | 91 | 1013.1 | |
| 20260506222515 | 7 | 0.0 | 0.0 | 0.03 | 0.81 | 0.00 | 91 | 1013.0 | |
| 20260506221535 | 7 | 0.0 | 0.0 | 0.03 | 0.84 | 0.00 | 91 | 1013.0 | |
| 20260506220516 | 7 | 0.0 | 0.0 | 0.03 | 0.86 | 0.00 | 90 | 1012.9 | |
| 20260506215516 | 7 | 38 | 0.0 | 1.6 | 0.03 | 0.89 | 0.89 | 89 | 1012.8 |
| 20260506214515 | 7 | 0.0 | 0.0 | 0.00 | 0.89 | 0.86 | 88 | 1012.9 | |
| 20260506213515 | 7 | 0.0 | 0.0 | 0.00 | 0.89 | 0.86 | 88 | 1012.7 | |
| 20260506212516 | 7 | 0.0 | 0.0 | 0.00 | 0.89 | 0.86 | 87 | 1012.6 | |
| 20260506211536 | 8 | 38 | 0.0 | 1.6 | 0.00 | 0.91 | 0.86 | 86 | 1012.6 |
| 20260506210515 | 8 | 0.0 | 0.0 | 0.00 | 0.94 | 0.86 | 86 | 1012.5 | |
| 20260506205515 | 8 | 41 | 0.0 | 3.2 | 0.00 | 0.97 | 0.86 | 85 | 1012.4 |
| 20260506204516 | 8 | 37 | 0.0 | 1.6 | 0.00 | 0.99 | 0.86 | 84 | 1012.3 |
| 20260506203515 | 8 | 0.0 | 3.2 | 0.03 | 0.99 | 0.86 | 83 | 1012.2 | |
| 20260506202536 | 8 | 49 | 0.0 | 4.8 | 0.03 | 1.02 | 0.86 | 82 | 1012.1 |
| 20260506201515 | 9 | 49 | 0.0 | 4.8 | 0.03 | 1.04 | 0.86 | 82 | 1012.1 |
| 20260506200515 | 9 | 14 | 0.0 | 3.2 | 0.03 | 1.07 | 0.86 | 82 | 1012.0 |
| 20260506195515 | 9 | 11 | 0.0 | 3.2 | 0.03 | 1.07 | 0.86 | 81 | 1011.8 |
| 20260506194516 | 10 | 0.0 | 0.0 | 0.03 | 1.09 | 0.86 | 81 | 1011.7 | |
| 20260506193535 | 10 | 32 | 0.0 | 1.6 | 0.00 | 1.09 | 0.84 | 80 | 1011.6 |
| 20260506192516 | 10 | 32 | 0.0 | 1.6 | 0.00 | 1.09 | 0.84 | 80 | 1011.5 |
| 20260506191515 | 10 | 45 | 1.6 | 4.8 | 0.00 | 1.09 | 0.84 | 79 | 1011.4 |
| 20260506190515 | 10 | 309 | 0.0 | 1.6 | 0.00 | 1.12 | 0.84 | 79 | 1011.3 |
| 20260506185516 | 10 | 346 | 0.0 | 3.2 | 0.00 | 1.14 | 0.84 | 79 | 1011.2 |
| 20260506184515 | 11 | 11 | 0.0 | 3.2 | 0.03 | 1.17 | 0.84 | 79 | 1011.1 |
| 20260506183556 | 11 | 0.0 | 0.0 | 0.03 | 1.19 | 0.84 | 79 | 1011.1 | |
| 20260506182515 | 11 | 0.0 | 3.2 | 0.03 | 1.22 | 0.84 | 77 | 1011.0 | |
| 20260506181515 | 11 | 34 | 0.0 | 6.4 | 0.03 | 1.27 | 0.84 | 76 | 1010.9 |
| 20260506180516 | 11 | 303 | 0.0 | 4.8 | 0.03 | 1.27 | 0.84 | 75 | 1010.8 |
| 20260506175515 | 12 | 359 | 0.0 | 3.2 | 0.03 | 1.30 | 0.84 | 73 | 1010.7 |
| 20260506174515 | 12 | 39 | 1.6 | 9.7 | 0.00 | 1.30 | 0.81 | 72 | 1010.6 |
| 20260506173515 | 12 | 32 | 3.2 | 14.5 | 0.00 | 1.35 | 0.81 | 69 | 1010.5 |
| 20260506172515 | 13 | 307 | 3.2 | 12.9 | 0.00 | 1.37 | 0.81 | 69 | 1010.3 |
| 20260506171516 | 12 | 50 | 3.2 | 11.3 | 0.03 | 1.37 | 0.81 | 73 | 1010.2 |
| 20260506170516 | 13 | 36 | 4.8 | 14.5 | 0.03 | 1.40 | 0.81 | 72 | 1010.2 |
| 20260506165535 | 13 | 29 | 3.2 | 12.9 | 0.03 | 1.42 | 0.81 | 71 | 1010.2 |
| 20260506164535 | 13 | 49 | 6.4 | 16.1 | 0.03 | 1.45 | 0.81 | 71 | 1010.1 |
| 20260506163515 | 13 | 347 | 1.6 | 12.9 | 0.03 | 1.45 | 0.81 | 72 | 1010.1 |
| 20260506162516 | 13 | 42 | 4.8 | 20.9 | 0.03 | 1.47 | 0.81 | 72 | 1010.1 |
| 20260506161516 | 13 | 22 | 3.2 | 14.5 | 0.00 | 1.50 | 0.79 | 71 | 1010.1 |
| 20260506160515 | 13 | 351 | 1.6 | 9.7 | 0.03 | 1.52 | 0.79 | 72 | 1010.1 |
| 20260506155615 | 13 | 338 | 1.6 | 14.5 | 0.03 | 1.55 | 0.79 | 71 | 1010.1 |
| 20260506154518 | 13 | 37 | 4.8 | 14.5 | 0.03 | 1.55 | 0.79 | 72 | 1010.0 |
| 20260506153518 | 13 | 50 | 6.4 | 24.1 | 0.03 | 1.60 | 0.79 | 72 | 1010.0 |
| 20260506152518 | 13 | 40 | 6.4 | 17.7 | 0.05 | 1.65 | 0.79 | 72 | 1010.0 |
| 20260506151538 | 13 | 52 | 4.8 | 20.9 | 0.05 | 1.68 | 0.79 | 72 | 1010.0 |
| 20260506150518 | 14 | 50 | 8.0 | 20.9 | 0.03 | 1.73 | 0.79 | 69 | 1009.9 |
| 20260506145518 | 16 | 44 | 11.3 | 25.7 | 0.03 | 1.75 | 0.79 | 62 | 1009.8 |
| 20260506144518 | 16 | 290 | 4.8 | 20.9 | 0.05 | 1.78 | 0.79 | 62 | 1009.6 |
| 20260506143518 | 16 | 295 | 8.0 | 25.7 | 0.05 | 1.83 | 0.79 | 60 | 1009.6 |
| 20260506142518 | 16 | 293 | 6.4 | 22.5 | 0.03 | 1.83 | 0.76 | 63 | 1009.5 |
| 20260506141538 | 15 | 289 | 8.0 | 20.9 | 0.03 | 1.85 | 0.76 | 64 | 1009.5 |
| 20260506140518 | 15 | 297 | 4.8 | 22.5 | 0.05 | 1.91 | 0.76 | 66 | 1009.6 |
| 20260506135518 | 15 | 307 | 3.2 | 14.5 | 0.05 | 1.96 | 0.76 | 69 | 1009.6 |
| 20260506134538 | 15 | 286 | 4.8 | 14.5 | 0.03 | 2.03 | 0.74 | 68 | 1009.6 |
| 20260506133518 | 15 | 295 | 3.2 | 9.7 | 0.03 | 2.06 | 0.74 | 71 | 1009.7 |